Погода в Ивановке

Россия / Амурская область     53°37′50″N   126°43′44″E
темп.,
°C
ветер,
м/с
пор.,
м/с
влажн.,
%
обл.,
%
осадки,
мм/ч
давл.,
гПа
погр.,
м
4 марта, чт
чт400:00−24с2289100 0.0 101528
03:00−24с2288100 0.0 101548
06:00−26с238642 0.0 101625
09:00−22с248369 0.0 1017170
12:00−17ссв2572100 0.0 1016662
15:00−17ссз4773100 0.0 1017709
18:00−20ссз51274100 0.0 1020775
21:00−25сз4147667 0.0 1023592
5 марта, пт
пт500:00−27сз415760 0.0 1025593
03:00−27сз515730 0.0 1026666
06:00−27ссз518720 0.0 1027723
09:00−25ссз615690 0.0 1028871
12:00−22ссз612720 0.0 1030991
15:00−19ссз712730 0.0 10301094
18:00−21сз4127722 0.0 1031678
21:00−26зсз338711 0.0 103265
6 марта, сб
сб600:00−27сз23870 0.0 103334
03:00−28ссз22830 0.0 103320
06:00−30сз12820 0.0 103319
09:00−25з01820 0.0 103364
12:00−18ююз11760 0.0 1030382
15:00−15зюз23740 0.0 1029593
18:00−18юв12850 0.0 102820
21:00−23всв119427 0.0 102920
7 марта, вс
вс700:00−25в119776 0.0 102820
03:00−26в129977 0.0 102819
06:00−27всв119997 0.0 102819
09:00−23ююз009573 0.0 102988
12:00−17юз128758 0.0 1027423
15:00−14з248080 0.0 1026667
18:00−17юз119099 0.0 102520
21:00−20вюв019993 0.0 102620
8 марта, пн
пн800:00−21в1110097 0.0 102520
03:00−21в1210099 0.1 102320
06:00−20в2398100 0.1 1021131
09:00−18в2496100 0.4 1020229
12:00−13вюв2288100 0.2 1019400
15:00−10юз0185100 0.3 1018554
18:00−13ссз0192100 0.1 101720
21:00−16ссв1193100 0.1 101920